Time,TemperatureF,DewpointF,PressureIn,WindDirection,WindDirectionDegrees,WindSpeedMPH,WindSpeedGustMPH,Humidity,HourlyPrecipIn,Conditions,Clouds,dailyrainin,SoftwareType,DateUTC
2013-05-28 10:00:00,81.0,72.7,30.15,SE,139,5.4,5.4,76,0.00,,---,0.00,VWS V14.01,2013-05-28 14:00:00,
2013-05-28 10:01:00,81.0,73.1,30.15,ESE,118,4.5,5.4,77,0.00,,---,0.00,VWS V14.01,2013-05-28 14:01:00,
2013-05-28 10:06:00,81.0,72.7,30.15,South,189,7.2,7.2,76,0.00,,---,0.00,VWS V14.01,2013-05-28 14:06:00,
2013-05-28 10:11:00,80.8,72.5,30.15,SE,145,10.5,10.5,76,0.00,,---,0.00,VWS V14.01,2013-05-28 14:11:00,
2013-05-28 10:16:00,79.7,71.9,30.15,ESE,115,5.4,11.0,77,0.00,,---,0.00,VWS V14.01,2013-05-28 14:16:00,
2013-05-28 10:21:00,78.8,72.1,30.15,South,170,5.8,5.8,80,0.00,,---,0.00,VWS V14.01,2013-05-28 14:21:00,
2013-05-28 10:26:00,78.3,72.7,30.15,South,181,3.6,3.6,83,0.00,,---,0.00,VWS V14.01,2013-05-28 14:26:00,
2013-05-28 10:27:00,78.1,72.5,30.15,SSE,162,5.8,5.8,83,0.00,,---,0.00,VWS V14.01,2013-05-28 14:27:00,
2013-05-28 10:31:00,78.1,72.9,30.15,SSE,151,4.0,5.4,84,0.00,,---,0.00,VWS V14.01,2013-05-28 14:31:00,
2013-05-28 10:32:00,78.1,72.9,30.15,SSE,159,5.4,5.4,84,0.00,,---,0.00,VWS V14.01,2013-05-28 14:32:00,
2013-05-28 10:36:00,77.9,72.7,30.15,SSE,162,4.9,5.4,84,0.00,,---,0.00,VWS V14.01,2013-05-28 14:36:00,
2013-05-28 10:37:00,77.9,72.7,30.15,South,173,2.7,4.9,84,0.00,,---,0.00,VWS V14.01,2013-05-28 14:37:00,
2013-05-28 10:41:00,77.9,72.3,30.15,SSE,149,5.8,8.3,83,0.00,,---,0.00,VWS V14.01,2013-05-28 14:41:00,
2013-05-28 10:42:00,77.9,72.3,30.15,ESE,117,8.7,8.7,83,0.00,,---,0.00,VWS V14.01,2013-05-28 14:42:00,
2013-05-28 10:46:00,78.1,72.1,30.15,SE,137,5.4,5.4,82,0.00,,---,0.00,VWS V14.01,2013-05-28 14:46:00,
2013-05-28 10:47:00,78.1,72.1,30.15,North,3,4.0,5.4,82,0.00,,---,0.00,VWS V14.01,2013-05-28 14:47:00,
2013-05-28 10:51:00,78.3,72.3,30.15,SSE,163,5.8,8.1,82,0.00,,---,0.00,VWS V14.01,2013-05-28 14:51:00,
2013-05-28 10:52:00,78.3,72.3,30.15,SSW,192,2.7,2.7,82,0.00,,---,0.00,VWS V14.01,2013-05-28 14:52:00,
2013-05-28 10:56:00,78.4,72.8,30.15,SSE,149,4.9,4.9,83,0.00,,---,0.00,VWS V14.01,2013-05-28 14:56:00,
2013-05-28 10:57:00,78.4,72.8,30.15,South,178,4.0,4.9,83,0.00,,---,0.00,VWS V14.01,2013-05-28 14:57:00,
2013-05-28 11:02:00,78.8,72.8,30.15,SSE,167,10.1,11.0,82,0.00,,---,0.00,VWS V14.01,2013-05-28 15:02:00,
2013-05-28 11:07:00,79.2,72.8,30.15,SE,141,8.3,8.3,81,0.00,,---,0.00,VWS V14.01,2013-05-28 15:07:00,
2013-05-28 11:08:00,79.2,72.8,30.15,SE,131,12.3,12.3,81,0.00,,---,0.00,VWS V14.01,2013-05-28 15:08:00,
2013-05-28 11:12:00,79.3,73.0,30.15,SSW,192,3.1,5.4,81,0.00,,---,0.00,VWS V14.01,2013-05-28 15:12:00,
2013-05-28 11:13:00,79.5,72.8,30.15,SSE,156,8.7,8.7,80,0.00,,---,0.00,VWS V14.01,2013-05-28 15:13:00,
2013-05-28 11:17:00,79.9,72.8,30.15,SSE,147,6.3,6.7,79,0.00,,---,0.00,VWS V14.01,2013-05-28 15:17:00,
2013-05-28 11:18:00,79.9,72.8,30.15,SSE,155,5.8,6.3,79,0.00,,---,0.00,VWS V14.01,2013-05-28 15:18:00,
2013-05-28 11:22:00,80.1,72.6,30.15,South,171,4.0,5.8,78,0.00,,---,0.00,VWS V14.01,2013-05-28 15:22:00,
2013-05-28 11:23:00,80.1,72.6,30.15,South,171,4.0,5.8,78,0.00,,---,0.00,VWS V14.01,2013-05-28 15:23:00,
2013-05-28 11:27:00,80.2,72.0,30.15,SSE,167,6.3,11.0,76,0.00,,---,0.00,VWS V14.01,2013-05-28 15:27:00,
2013-05-28 11:28:00,80.2,72.0,30.15,SSE,167,6.3,11.0,76,0.00,,---,0.00,VWS V14.01,2013-05-28 15:28:00,
2013-05-28 11:33:00,80.4,71.4,30.15,SSE,151,10.1,10.1,74,0.00,,---,0.00,VWS V14.01,2013-05-28 15:33:00,
2013-05-28 11:34:00,80.4,71.0,30.15,SE,131,8.7,8.7,73,0.00,,---,0.00,VWS V14.01,2013-05-28 15:34:00,
2013-05-28 11:38:00,80.4,71.0,30.15,SE,145,6.7,8.3,73,0.00,,---,0.00,VWS V14.01,2013-05-28 15:38:00,
2013-05-28 11:39:00,80.4,71.0,30.15,SSE,166,5.4,8.3,73,0.00,,---,0.00,VWS V14.01,2013-05-28 15:39:00,
2013-05-28 11:43:00,80.8,71.7,30.15,WNW,289,7.2,7.2,74,0.00,,---,0.00,VWS V14.01,2013-05-28 15:43:00,
2013-05-28 11:44:00,80.8,71.7,30.15,SSE,152,4.9,4.9,74,0.00,,---,0.00,VWS V14.01,2013-05-28 15:44:00,
2013-05-28 11:48:00,81.0,71.9,30.15,WSW,242,5.4,5.4,74,0.00,,---,0.00,VWS V14.01,2013-05-28 15:48:00,
2013-05-28 11:49:00,81.0,71.9,30.15,SSE,151,3.1,8.3,74,0.00,,---,0.00,VWS V14.01,2013-05-28 15:49:00,
2013-05-28 11:53:00,81.1,72.1,30.15,SW,220,3.1,8.7,74,0.00,,---,0.00,VWS V14.01,2013-05-28 15:53:00,
2013-05-28 11:54:00,81.1,72.1,30.15,South,177,4.0,8.7,74,0.00,,---,0.00,VWS V14.01,2013-05-28 15:54:00,
2013-05-28 11:58:00,81.3,72.2,30.15,WSW,240,10.5,10.5,74,0.00,,---,0.00,VWS V14.01,2013-05-28 15:58:00,
2013-05-28 11:59:00,81.3,72.2,30.15,ESE,113,5.4,10.5,74,0.00,,---,0.00,VWS V14.01,2013-05-28 15:59:00,
2013-05-28 12:03:00,81.1,72.1,30.15,NNE,30,3.6,5.4,74,0.00,,---,0.00,VWS V14.01,2013-05-28 16:03:00,
2013-05-28 12:04:00,81.1,72.1,30.15,SSE,156,5.8,5.8,74,0.00,,---,0.00,VWS V14.01,2013-05-28 16:04:00,
2013-05-28 12:05:00,81.1,72.1,30.15,SSE,160,6.3,6.3,74,0.00,,---,0.00,VWS V14.01,2013-05-28 16:05:00,
2013-05-28 12:08:00,81.3,72.2,30.15,SSE,155,6.3,8.1,74,0.00,,---,0.00,VWS V14.01,2013-05-28 16:08:00,
2013-05-28 12:09:00,81.3,72.2,30.15,SSE,155,6.3,8.1,74,0.00,,---,0.00,VWS V14.01,2013-05-28 16:09:00,
2013-05-28 12:10:00,81.3,72.2,30.15,SSE,147,3.1,7.2,74,0.00,,---,0.00,VWS V14.01,2013-05-28 16:10:00,
2013-05-28 12:14:00,81.1,71.7,30.15,SSW,195,4.0,5.4,73,0.00,,---,0.00,VWS V14.01,2013-05-28 16:14:00,
2013-05-28 12:15:00,81.3,72.2,30.15,WNW,283,2.7,8.1,74,0.00,,---,0.00,VWS V14.01,2013-05-28 16:15:00,
2013-05-28 12:19:00,81.1,72.1,30.15,SSE,157,3.6,4.5,74,0.00,,---,0.00,VWS V14.01,2013-05-28 16:19:00,
2013-05-28 12:20:00,81.3,72.2,30.15,SE,136,4.0,8.1,74,0.00,,---,0.00,VWS V14.01,2013-05-28 16:20:00,
2013-05-28 12:24:00,81.3,71.8,30.15,SE,139,4.0,5.4,73,0.00,,---,0.00,VWS V14.01,2013-05-28 16:24:00,
2013-05-28 12:25:00,81.3,71.8,30.15,SSE,154,4.5,4.5,73,0.00,,---,0.00,VWS V14.01,2013-05-28 16:25:00,
2013-05-28 12:26:00,81.3,71.8,30.15,South,172,4.0,4.9,73,0.00,,---,0.00,VWS V14.01,2013-05-28 16:26:00,
2013-05-28 12:29:00,81.5,72.4,30.15,North,0,4.0,4.0,74,0.00,,---,0.00,VWS V14.01,2013-05-28 16:29:00,
2013-05-28 12:30:00,81.5,72.4,30.15,SSE,159,6.3,6.3,74,0.00,,---,0.00,VWS V14.01,2013-05-28 16:30:00,
2013-05-28 12:31:00,81.5,72.4,30.15,SSE,159,7.6,7.6,74,0.00,,---,0.00,VWS V14.01,2013-05-28 16:31:00,
2013-05-28 12:34:00,81.5,72.4,30.15,South,183,2.7,3.6,74,0.00,,---,0.00,VWS V14.01,2013-05-28 16:34:00,
2013-05-28 12:35:00,81.5,72.4,30.15,SSE,147,2.7,3.6,74,0.00,,---,0.00,VWS V14.01,2013-05-28 16:35:00,
2013-05-28 12:36:00,81.5,72.4,30.15,SSE,164,2.7,5.4,74,0.00,,---,0.00,VWS V14.01,2013-05-28 16:36:00,
2013-05-28 12:40:00,82.0,72.9,30.15,SSE,153,3.6,3.6,74,0.00,,---,0.00,VWS V14.01,2013-05-28 16:40:00,
2013-05-28 12:41:00,82.0,72.9,30.15,SE,135,3.6,5.4,74,0.00,,---,0.00,VWS V14.01,2013-05-28 16:41:00,
2013-05-28 12:45:00,82.2,72.7,30.15,South,179,6.3,7.6,73,0.00,,---,0.00,VWS V14.01,2013-05-28 16:45:00,
2013-05-28 12:46:00,82.2,72.7,30.15,SE,126,4.0,5.8,73,0.00,,---,0.00,VWS V14.01,2013-05-28 16:46:00,
2013-05-28 12:50:00,82.2,72.7,30.15,SSE,150,4.0,4.0,73,0.00,,---,0.00,VWS V14.01,2013-05-28 16:50:00,
2013-05-28 12:51:00,82.2,72.7,30.15,SE,145,4.9,4.9,73,0.00,,---,0.00,VWS V14.01,2013-05-28 16:51:00,
2013-05-28 12:55:00,82.2,72.7,30.15,NW,314,2.7,2.7,73,0.00,,---,0.00,VWS V14.01,2013-05-28 16:55:00,
2013-05-28 12:56:00,82.9,73.0,30.15,NNE,32,2.7,3.1,72,0.00,,---,0.00,VWS V14.01,2013-05-28 16:56:00,
2013-05-28 13:00:00,82.9,72.6,30.15,SE,146,2.7,6.3,71,0.00,,---,0.00,VWS V14.01,2013-05-28 17:00:00,
2013-05-28 13:01:00,82.9,72.6,30.15,SSW,212,5.8,6.3,71,0.00,,---,0.00,VWS V14.01,2013-05-28 17:01:00,
2013-05-28 13:02:00,83.1,72.8,30.15,SSE,154,4.9,7.2,71,0.00,,---,0.00,VWS V14.01,2013-05-28 17:02:00,
2013-05-28 13:05:00,83.1,72.8,30.15,SW,214,3.1,8.1,71,0.00,,---,0.00,VWS V14.01,2013-05-28 17:05:00,
2013-05-28 13:06:00,83.1,72.8,30.15,SSE,156,3.6,8.1,71,0.00,,---,0.00,VWS V14.01,2013-05-28 17:06:00,
2013-05-28 13:07:00,83.1,72.3,30.15,South,178,3.1,3.6,70,0.00,,---,0.00,VWS V14.01,2013-05-28 17:07:00,
2013-05-28 13:10:00,83.1,72.3,30.15,South,180,4.0,5.4,70,0.00,,---,0.00,VWS V14.01,2013-05-28 17:10:00,
2013-05-28 13:11:00,83.1,72.3,30.15,South,171,4.9,5.8,70,0.00,,---,0.00,VWS V14.01,2013-05-28 17:11:00,
2013-05-28 13:12:00,83.1,72.3,30.15,NNW,338,3.1,6.3,70,0.00,,---,0.00,VWS V14.01,2013-05-28 17:12:00,
2013-05-28 13:15:00,82.8,72.0,30.15,SSE,162,4.9,4.9,70,0.00,,---,0.00,VWS V14.01,2013-05-28 17:15:00,
2013-05-28 13:16:00,82.8,72.0,30.15,South,175,2.2,4.9,70,0.00,,---,0.00,VWS V14.01,2013-05-28 17:16:00,
2013-05-28 13:17:00,82.9,72.6,30.15,SSE,165,3.1,3.1,71,0.00,,---,0.00,VWS V14.01,2013-05-28 17:17:00,
2013-05-28 13:20:00,83.1,72.8,30.15,South,169,4.0,4.0,71,0.00,,---,0.00,VWS V14.01,2013-05-28 17:20:00,
2013-05-28 13:21:00,83.1,72.8,30.15,South,169,4.0,4.0,71,0.00,,---,0.00,VWS V14.01,2013-05-28 17:21:00,
2013-05-28 13:22:00,83.1,72.8,30.15,South,179,3.6,3.6,71,0.00,,---,0.00,VWS V14.01,2013-05-28 17:22:00,
2013-05-28 13:25:00,83.5,73.5,30.15,South,181,3.6,5.4,72,0.00,,---,0.00,VWS V14.01,2013-05-28 17:25:00,
2013-05-28 13:26:00,83.5,73.5,30.15,SW,233,3.1,3.1,72,0.00,,---,0.00,VWS V14.01,2013-05-28 17:26:00,
2013-05-28 13:27:00,83.8,73.0,30.15,SE,142,4.0,4.0,70,0.00,,---,0.00,VWS V14.01,2013-05-28 17:27:00,
2013-05-28 13:31:00,84.2,72.9,30.15,SE,128,5.8,6.3,69,0.00,,---,0.00,VWS V14.01,2013-05-28 17:31:00,
2013-05-28 13:32:00,84.4,73.1,30.15,SSW,202,2.7,4.9,69,0.00,,---,0.00,VWS V14.01,2013-05-28 17:32:00,
2013-05-28 13:36:00,84.4,73.1,30.15,SSE,153,5.4,5.4,69,0.00,,---,0.00,VWS V14.01,2013-05-28 17:36:00,
2013-05-28 13:37:00,84.4,73.1,30.15,South,186,5.8,6.7,69,0.00,,---,0.00,VWS V14.01,2013-05-28 17:37:00,
2013-05-28 13:41:00,84.4,72.7,30.15,West,259,3.1,6.3,68,0.00,,---,0.00,VWS V14.01,2013-05-28 17:41:00,
2013-05-28 13:42:00,84.4,72.7,30.15,SSE,149,5.8,5.8,68,0.00,,---,0.00,VWS V14.01,2013-05-28 17:42:00,
2013-05-28 13:46:00,84.2,72.1,30.15,SSE,157,3.6,6.3,67,0.00,,---,0.00,VWS V14.01,2013-05-28 17:46:00,
2013-05-28 13:47:00,84.2,72.5,30.15,SSE,149,3.1,3.1,68,0.00,,---,0.00,VWS V14.01,2013-05-28 17:47:00,
2013-05-28 13:51:00,84.2,72.1,30.15,South,191,2.7,3.1,67,0.00,,---,0.00,VWS V14.01,2013-05-28 17:51:00,
2013-05-28 13:52:00,84.2,72.5,30.15,North,8,3.6,3.6,68,0.00,,---,0.00,VWS V14.01,2013-05-28 17:52:00,
2013-05-28 13:53:00,84.2,72.5,30.15,SSE,158,3.6,4.5,68,0.00,,---,0.00,VWS V14.01,2013-05-28 17:53:00,
2013-05-28 13:56:00,84.2,72.5,30.15,South,184,4.9,4.9,68,0.00,,---,0.00,VWS V14.01,2013-05-28 17:56:00,
2013-05-28 13:57:00,84.2,72.5,30.15,SSE,161,8.7,8.7,68,0.00,,---,0.00,VWS V14.01,2013-05-28 17:57:00,
2013-05-28 13:59:00,84.2,72.5,30.15,SSE,159,6.3,8.1,68,0.00,,---,0.00,VWS V14.01,2013-05-28 17:59:00,
2013-05-28 14:01:00,84.2,72.5,30.15,SE,146,3.6,3.6,68,0.00,,---,0.00,VWS V14.01,2013-05-28 18:01:00,
2013-05-28 14:02:00,84.2,72.5,30.15,SE,138,3.1,3.6,68,0.00,,---,0.00,VWS V14.01,2013-05-28 18:02:00,
2013-05-28 14:04:00,84.4,72.7,30.15,South,183,5.4,6.7,68,0.00,,---,0.00,VWS V14.01,2013-05-28 18:04:00,
2013-05-28 14:06:00,84.2,72.5,30.15,North,2,3.6,5.4,68,0.00,,---,0.00,VWS V14.01,2013-05-28 18:06:00,
2013-05-28 14:07:00,84.2,72.5,30.15,North,2,3.6,5.4,68,0.00,,---,0.00,VWS V14.01,2013-05-28 18:07:00,
2013-05-28 14:09:00,84.0,72.3,30.15,SSE,153,3.6,3.6,68,0.00,,---,0.00,VWS V14.01,2013-05-28 18:09:00,
2013-05-28 14:12:00,84.0,72.3,30.15,SSE,155,4.0,8.1,68,0.00,,---,0.00,VWS V14.01,2013-05-28 18:12:00,
2013-05-28 14:13:00,84.0,72.3,30.15,SE,133,6.3,8.7,68,0.00,,---,0.00,VWS V14.01,2013-05-28 18:13:00,
2013-05-28 14:14:00,84.0,72.3,30.15,SSE,152,5.8,5.8,68,0.00,,---,0.00,VWS V14.01,2013-05-28 18:14:00,
2013-05-28 14:17:00,84.0,72.3,30.15,East,92,3.1,7.6,68,0.00,,---,0.00,VWS V14.01,2013-05-28 18:17:00,
2013-05-28 14:18:00,84.0,71.9,30.15,SW,233,4.9,5.8,67,0.00,,---,0.00,VWS V14.01,2013-05-28 18:18:00,
2013-05-28 14:19:00,84.0,71.9,30.15,SE,131,3.1,4.9,67,0.00,,---,0.00,VWS V14.01,2013-05-28 18:19:00,
2013-05-28 14:22:00,84.0,71.9,30.15,SSE,166,8.7,8.7,67,0.00,,---,0.00,VWS V14.01,2013-05-28 18:22:00,
2013-05-28 14:23:00,84.0,71.9,30.15,South,181,4.0,8.7,67,0.00,,---,0.00,VWS V14.01,2013-05-28 18:23:00,
2013-05-28 14:24:00,84.0,71.9,30.15,SE,141,6.3,6.3,67,0.00,,---,0.00,VWS V14.01,2013-05-28 18:24:00,
2013-05-28 14:27:00,84.0,71.9,30.15,SSE,157,6.3,6.3,67,0.00,,---,0.00,VWS V14.01,2013-05-28 18:27:00,
2013-05-28 14:28:00,84.0,71.9,30.15,SSE,155,0.0,3.1,67,0.00,,---,0.00,VWS V14.01,2013-05-28 18:28:00,
2013-05-28 14:29:00,84.0,71.9,30.15,SE,146,4.9,7.6,67,0.00,,---,0.00,VWS V14.01,2013-05-28 18:29:00,
2013-05-28 14:32:00,84.0,71.9,30.15,WSW,237,3.1,5.4,67,0.00,,---,0.00,VWS V14.01,2013-05-28 18:32:00,
2013-05-28 14:33:00,84.0,71.4,30.15,SSE,152,6.7,6.7,66,0.00,,---,0.00,VWS V14.01,2013-05-28 18:33:00,
2013-05-28 14:35:00,84.0,71.4,30.15,SE,130,6.3,12.8,66,0.00,,---,0.00,VWS V14.01,2013-05-28 18:35:00,
2013-05-28 14:37:00,84.0,71.4,30.15,SE,141,3.1,5.4,66,0.00,,---,0.00,VWS V14.01,2013-05-28 18:37:00,
2013-05-28 14:38:00,84.2,71.6,30.15,SSE,168,4.9,8.3,66,0.00,,---,0.00,VWS V14.01,2013-05-28 18:38:00,
2013-05-28 14:40:00,84.2,71.6,30.15,SW,236,3.1,5.8,66,0.00,,---,0.00,VWS V14.01,2013-05-28 18:40:00,
2013-05-28 14:42:00,84.4,71.8,30.15,SE,144,5.4,6.3,66,0.00,,---,0.00,VWS V14.01,2013-05-28 18:42:00,
2013-05-28 14:43:00,84.4,71.8,30.15,South,169,2.7,6.3,66,0.00,,---,0.00,VWS V14.01,2013-05-28 18:43:00,
2013-05-28 14:45:00,84.6,72.0,30.15,SE,145,5.8,5.8,66,0.00,,---,0.00,VWS V14.01,2013-05-28 18:45:00,
2013-05-28 14:47:00,84.7,72.6,30.15,SSW,202,5.8,5.8,67,0.00,,---,0.00,VWS V14.01,2013-05-28 18:47:00,
2013-05-28 14:48:00,84.7,72.6,30.15,SSE,149,4.0,4.0,67,0.00,,---,0.00,VWS V14.01,2013-05-28 18:48:00,
2013-05-28 14:49:00,84.9,72.8,30.15,South,185,3.1,4.0,67,0.00,,---,0.00,VWS V14.01,2013-05-28 18:49:00,
2013-05-28 14:50:00,84.9,72.3,30.15,SE,135,3.6,5.8,66,0.00,,---,0.00,VWS V14.01,2013-05-28 18:50:00,
2013-05-28 14:52:00,84.9,71.8,30.15,SSE,154,4.0,5.8,65,0.00,,---,0.00,VWS V14.01,2013-05-28 18:52:00,
2013-05-28 14:53:00,84.9,71.8,30.15,SE,139,6.3,6.3,65,0.00,,---,0.00,VWS V14.01,2013-05-28 18:53:00,
2013-05-28 14:54:00,84.9,71.8,30.15,South,176,3.6,3.6,65,0.00,,---,0.00,VWS V14.01,2013-05-28 18:54:00,
2013-05-28 14:55:00,84.9,72.3,30.15,SSW,200,3.6,4.9,66,0.00,,---,0.00,VWS V14.01,2013-05-28 18:55:00,
2013-05-28 14:58:00,84.9,71.8,30.15,NE,42,2.7,5.8,65,0.00,,---,0.00,VWS V14.01,2013-05-28 18:58:00,
2013-05-28 15:00:00,84.7,71.2,30.15,SSW,199,5.8,5.8,64,0.00,,---,0.00,VWS V14.01,2013-05-28 19:00:00,
2013-05-28 15:03:00,84.9,71.8,30.12,SE,133,3.1,3.1,65,0.00,,---,0.00,VWS V14.01,2013-05-28 19:03:00,
2013-05-28 15:05:00,84.9,71.8,30.12,SE,137,3.6,4.0,65,0.00,,---,0.00,VWS V14.01,2013-05-28 19:05:00,
2013-05-28 15:08:00,85.1,71.6,30.12,WSW,254,2.7,2.7,64,0.00,,---,0.00,VWS V14.01,2013-05-28 19:08:00,
2013-05-28 15:09:00,85.3,71.3,30.12,South,187,0.0,4.9,63,0.00,,---,0.00,VWS V14.01,2013-05-28 19:09:00,
2013-05-28 15:10:00,85.3,71.7,30.12,NNE,31,4.0,4.0,64,0.00,,---,0.00,VWS V14.01,2013-05-28 19:10:00,
2013-05-28 15:13:00,85.6,72.1,30.12,South,178,4.9,4.9,64,0.00,,---,0.00,VWS V14.01,2013-05-28 19:13:00,
2013-05-28 15:14:00,85.6,72.1,30.12,SSE,159,3.6,3.6,64,0.00,,---,0.00,VWS V14.01,2013-05-28 19:14:00,
2013-05-28 15:15:00,85.8,72.2,30.12,SSE,149,7.6,7.6,64,0.00,,---,0.00,VWS V14.01,2013-05-28 19:15:00,
2013-05-28 15:18:00,85.8,72.2,30.12,South,173,4.0,5.8,64,0.00,,---,0.00,VWS V14.01,2013-05-28 19:18:00,
2013-05-28 15:19:00,86.0,72.4,30.12,SSE,153,5.8,5.8,64,0.00,,---,0.00,VWS V14.01,2013-05-28 19:19:00,
2013-05-28 15:20:00,86.0,72.4,30.12,SW,225,3.1,6.3,64,0.00,,---,0.00,VWS V14.01,2013-05-28 19:20:00,
2013-05-28 15:21:00,86.0,72.4,30.12,SE,141,5.8,6.7,64,0.00,,---,0.00,VWS V14.01,2013-05-28 19:21:00,
2013-05-28 15:23:00,85.8,72.2,30.12,NNE,25,3.6,5.8,64,0.00,,---,0.00,VWS V14.01,2013-05-28 19:23:00,
2013-05-28 15:24:00,85.8,72.2,30.12,SE,145,4.0,8.1,64,0.00,,---,0.00,VWS V14.01,2013-05-28 19:24:00,
2013-05-28 15:25:00,86.0,72.4,30.12,SSE,159,2.7,5.8,64,0.00,,---,0.00,VWS V14.01,2013-05-28 19:25:00,
2013-05-28 15:26:00,86.0,72.4,30.12,North,2,4.0,5.8,64,0.00,,---,0.00,VWS V14.01,2013-05-28 19:26:00,
2013-05-28 15:28:00,86.2,72.6,30.12,ESE,111,4.9,5.4,64,0.00,,---,0.00,VWS V14.01,2013-05-28 19:28:00,
2013-05-28 15:29:00,86.0,72.4,30.12,SSE,160,3.6,4.0,64,0.00,,---,0.00,VWS V14.01,2013-05-28 19:29:00,
2013-05-28 15:30:00,86.2,73.0,30.12,SSE,165,4.9,4.9,65,0.00,,---,0.00,VWS V14.01,2013-05-28 19:30:00,
2013-05-28 15:31:00,86.2,73.0,30.12,SE,141,6.3,6.3,65,0.00,,---,0.00,VWS V14.01,2013-05-28 19:31:00,
2013-05-28 15:33:00,86.0,72.4,30.12,South,170,3.6,6.3,64,0.00,,---,0.00,VWS V14.01,2013-05-28 19:33:00,
2013-05-28 15:34:00,86.2,72.6,30.12,SSE,148,5.8,5.8,64,0.00,,---,0.00,VWS V14.01,2013-05-28 19:34:00,
2013-05-28 15:35:00,86.0,72.4,30.12,SSW,194,5.8,5.8,64,0.00,,---,0.00,VWS V14.01,2013-05-28 19:35:00,
2013-05-28 15:36:00,86.2,72.6,30.12,SE,135,3.1,5.8,64,0.00,,---,0.00,VWS V14.01,2013-05-28 19:36:00,
2013-05-28 15:38:00,86.0,72.9,30.12,SE,133,2.7,4.9,65,0.00,,---,0.00,VWS V14.01,2013-05-28 19:38:00,
2013-05-28 15:39:00,86.0,72.9,30.12,North,10,3.1,3.1,65,0.00,,---,0.00,VWS V14.01,2013-05-28 19:39:00,
2013-05-28 15:40:00,86.0,72.9,30.12,South,171,3.6,3.6,65,0.00,,---,0.00,VWS V14.01,2013-05-28 19:40:00,
2013-05-28 15:41:00,86.0,72.9,30.12,South,169,2.7,5.8,65,0.00,,---,0.00,VWS V14.01,2013-05-28 19:41:00,
2013-05-28 15:43:00,85.8,72.7,30.12,South,175,4.9,4.9,65,0.00,,---,0.00,VWS V14.01,2013-05-28 19:43:00,
2013-05-28 15:44:00,85.8,72.7,30.12,SW,214,2.7,5.4,65,0.00,,---,0.00,VWS V14.01,2013-05-28 19:44:00,
2013-05-28 15:45:00,85.8,72.7,30.12,South,172,3.1,5.4,65,0.00,,---,0.00,VWS V14.01,2013-05-28 19:45:00,
2013-05-28 15:46:00,85.8,72.7,30.12,SSE,152,8.1,8.1,65,0.00,,---,0.00,VWS V14.01,2013-05-28 19:46:00,
2013-05-28 15:48:00,85.3,72.2,30.12,WNW,285,3.1,5.8,65,0.00,,---,0.00,VWS V14.01,2013-05-28 19:48:00,
2013-05-28 15:49:00,85.3,72.2,30.12,SE,141,3.6,5.4,65,0.00,,---,0.00,VWS V14.01,2013-05-28 19:49:00,
2013-05-28 15:50:00,85.3,72.2,30.12,SE,141,3.6,3.6,65,0.00,,---,0.00,VWS V14.01,2013-05-28 19:50:00,
2013-05-28 15:51:00,85.3,72.2,30.12,SSW,196,3.1,3.6,65,0.00,,---,0.00,VWS V14.01,2013-05-28 19:51:00,
2013-05-28 15:54:00,85.5,72.8,30.12,South,177,3.1,6.3,66,0.00,,---,0.00,VWS V14.01,2013-05-28 19:54:00,
2013-05-28 15:55:00,85.5,72.8,30.12,SSE,162,2.7,2.7,66,0.00,,---,0.00,VWS V14.01,2013-05-28 19:55:00,
2013-05-28 15:56:00,85.6,73.0,30.12,SSE,161,2.7,2.7,66,0.00,,---,0.00,VWS V14.01,2013-05-28 19:56:00,
2013-05-28 15:59:00,85.6,73.0,30.12,SSW,195,3.6,6.3,66,0.00,,---,0.00,VWS V14.01,2013-05-28 19:59:00,
2013-05-28 16:00:00,85.6,73.0,30.12,SSW,210,2.7,2.7,66,0.00,,---,0.00,VWS V14.01,2013-05-28 20:00:00,
2013-05-28 16:01:00,85.6,73.0,30.12,South,172,5.8,5.8,66,0.00,,---,0.00,VWS V14.01,2013-05-28 20:01:00,
2013-05-28 16:04:00,85.6,73.0,30.12,SSE,147,5.4,5.4,66,0.00,,---,0.00,VWS V14.01,2013-05-28 20:04:00,
2013-05-28 16:05:00,85.6,73.0,30.12,South,173,3.6,5.4,66,0.00,,---,0.00,VWS V14.01,2013-05-28 20:05:00,
2013-05-28 16:06:00,85.3,72.2,30.12,SE,145,0.0,2.7,65,0.00,,---,0.00,VWS V14.01,2013-05-28 20:06:00,
2013-05-28 16:09:00,85.3,72.2,30.12,SE,144,4.0,5.8,65,0.00,,---,0.00,VWS V14.01,2013-05-28 20:09:00,
2013-05-28 16:10:00,85.3,72.2,30.12,SSE,147,3.6,5.8,65,0.00,,---,0.00,VWS V14.01,2013-05-28 20:10:00,
2013-05-28 16:11:00,85.1,72.0,30.12,SE,144,6.3,6.3,65,0.00,,---,0.00,VWS V14.01,2013-05-28 20:11:00,
2013-05-28 16:12:00,85.1,72.0,30.12,SSE,152,3.6,6.3,65,0.00,,---,0.00,VWS V14.01,2013-05-28 20:12:00,
2013-05-28 16:15:00,84.9,72.3,30.12,SE,139,5.4,5.4,66,0.00,,---,0.00,VWS V14.01,2013-05-28 20:15:00,
2013-05-28 16:16:00,84.9,72.3,30.12,SSE,156,3.1,5.4,66,0.00,,---,0.00,VWS V14.01,2013-05-28 20:16:00,
2013-05-28 16:17:00,84.9,72.3,30.12,SW,216,2.7,2.7,66,0.00,,---,0.00,VWS V14.01,2013-05-28 20:17:00,
2013-05-28 16:20:00,84.9,72.8,30.12,South,171,2.2,4.0,67,0.00,,---,0.00,VWS V14.01,2013-05-28 20:20:00,
2013-05-28 16:21:00,84.9,72.8,30.12,SSW,203,2.7,4.0,67,0.00,,---,0.00,VWS V14.01,2013-05-28 20:21:00,
2013-05-28 16:22:00,84.9,72.8,30.12,SSE,158,4.0,9.6,67,0.00,,---,0.00,VWS V14.01,2013-05-28 20:22:00,
2013-05-28 16:25:00,84.9,72.8,30.12,North,2,0.0,4.0,67,0.00,,---,0.00,VWS V14.01,2013-05-28 20:25:00,
2013-05-28 16:26:00,84.9,72.8,30.12,South,176,3.6,4.0,67,0.00,,---,0.00,VWS V14.01,2013-05-28 20:26:00,
2013-05-28 16:27:00,84.9,72.8,30.12,SSE,148,3.1,6.3,67,0.00,,---,0.00,VWS V14.01,2013-05-28 20:27:00,
2013-05-28 16:28:00,84.9,72.8,30.12,ESE,110,5.4,5.4,67,0.00,,---,0.00,VWS V14.01,2013-05-28 20:28:00,
2013-05-28 16:30:00,84.6,72.4,30.12,SSE,147,5.4,5.4,67,0.00,,---,0.00,VWS V14.01,2013-05-28 20:30:00,
2013-05-28 16:31:00,84.6,72.4,30.12,SSE,148,5.4,5.4,67,0.00,,---,0.00,VWS V14.01,2013-05-28 20:31:00,
2013-05-28 16:33:00,84.4,71.8,30.12,South,171,5.4,5.4,66,0.00,,---,0.00,VWS V14.01,2013-05-28 20:33:00,
2013-05-28 16:35:00,84.4,71.8,30.12,WSW,254,3.1,3.6,66,0.00,,---,0.00,VWS V14.01,2013-05-28 20:35:00,
2013-05-28 16:36:00,84.4,71.8,30.12,SSW,192,3.1,5.4,66,0.00,,---,0.00,VWS V14.01,2013-05-28 20:36:00,
2013-05-28 16:37:00,84.4,71.8,30.12,WSW,245,4.9,4.9,66,0.00,,---,0.00,VWS V14.01,2013-05-28 20:37:00,
2013-05-28 16:38:00,84.4,71.8,30.12,SW,216,3.1,3.1,66,0.00,,---,0.00,VWS V14.01,2013-05-28 20:38:00,
2013-05-28 16:40:00,84.4,71.8,30.12,SSW,192,0.0,5.8,66,0.00,,---,0.00,VWS V14.01,2013-05-28 20:40:00,
2013-05-28 16:41:00,84.4,71.8,30.12,SSW,200,3.6,3.6,66,0.00,,---,0.00,VWS V14.01,2013-05-28 20:41:00,
2013-05-28 16:42:00,84.4,71.8,30.12,SSE,167,3.6,4.0,66,0.00,,---,0.00,VWS V14.01,2013-05-28 20:42:00,
2013-05-28 16:43:00,84.4,71.8,30.12,South,182,3.6,3.6,66,0.00,,---,0.00,VWS V14.01,2013-05-28 20:43:00,
2013-05-28 16:45:00,84.4,71.8,30.12,SE,126,3.6,4.5,66,0.00,,---,0.00,VWS V14.01,2013-05-28 20:45:00,
2013-05-28 16:46:00,84.4,71.8,30.12,SSE,157,5.8,5.8,66,0.00,,---,0.00,VWS V14.01,2013-05-28 20:46:00,
2013-05-28 16:47:00,84.4,71.8,30.12,SSE,168,4.9,5.8,66,0.00,,---,0.00,VWS V14.01,2013-05-28 20:47:00,
2013-05-28 16:48:00,84.4,71.8,30.09,SSE,159,7.2,7.6,66,0.00,,---,0.00,VWS V14.01,2013-05-28 20:48:00,
2013-05-28 16:50:00,83.7,71.6,30.09,SSE,165,6.3,7.6,67,0.00,,---,0.00,VWS V14.01,2013-05-28 20:50:00,
2013-05-28 16:51:00,83.7,71.6,30.09,SW,214,8.3,8.3,67,0.00,,---,0.00,VWS V14.01,2013-05-28 20:51:00,
2013-05-28 16:52:00,83.7,71.6,30.09,SE,124,11.4,11.4,67,0.00,,---,0.00,VWS V14.01,2013-05-28 20:52:00,
2013-05-28 16:53:00,83.7,71.6,30.09,SE,143,8.1,8.7,67,0.00,,---,0.00,VWS V14.01,2013-05-28 20:53:00,
2013-05-28 16:55:00,83.7,71.6,30.09,SSE,167,7.6,9.2,67,0.00,,---,0.00,VWS V14.01,2013-05-28 20:55:00,
2013-05-28 16:56:00,83.7,71.6,30.09,South,184,5.4,8.7,67,0.00,,---,0.00,VWS V14.01,2013-05-28 20:56:00,
2013-05-28 16:57:00,83.7,71.6,30.09,SSE,161,6.3,6.3,67,0.00,,---,0.00,VWS V14.01,2013-05-28 20:57:00,
2013-05-28 16:58:00,81.3,71.0,30.09,South,178,8.1,8.1,71,0.00,,---,0.00,VWS V14.01,2013-05-28 20:58:00,
2013-05-28 17:01:00,81.3,71.0,30.09,SSE,160,6.3,6.3,71,0.00,,---,0.00,VWS V14.01,2013-05-28 21:01:00,
2013-05-28 17:02:00,81.3,71.0,30.12,SSE,168,3.6,5.4,71,0.04,,---,0.04,VWS V14.01,2013-05-28 21:02:00,
2013-05-28 17:03:00,81.3,71.0,30.12,SSE,153,5.8,5.8,71,0.04,,---,0.04,VWS V14.01,2013-05-28 21:03:00,
2013-05-28 17:06:00,81.3,71.0,30.12,SSE,157,5.8,5.8,71,0.04,,---,0.04,VWS V14.01,2013-05-28 21:06:00,
2013-05-28 17:07:00,81.3,71.0,30.12,SSE,153,5.4,5.8,71,0.04,,---,0.04,VWS V14.01,2013-05-28 21:07:00,
2013-05-28 17:08:00,81.3,71.0,30.12,South,170,5.4,5.4,71,0.04,,---,0.04,VWS V14.01,2013-05-28 21:08:00,
2013-05-28 17:11:00,79.2,71.3,30.12,SSE,152,5.4,5.4,77,0.04,,---,0.04,VWS V14.01,2013-05-28 21:11:00,
2013-05-28 17:12:00,79.2,71.3,30.12,SE,138,10.1,10.1,77,0.04,,---,0.04,VWS V14.01,2013-05-28 21:12:00,
2013-05-28 17:13:00,79.0,71.2,30.12,SE,143,3.1,8.1,77,0.04,,---,0.04,VWS V14.01,2013-05-28 21:13:00,
2013-05-28 17:16:00,79.0,71.5,30.12,SE,131,5.4,7.6,78,0.04,,---,0.04,VWS V14.01,2013-05-28 21:16:00,
2013-05-28 17:17:00,79.0,71.5,30.12,SE,146,8.3,8.3,78,0.04,,---,0.04,VWS V14.01,2013-05-28 21:17:00,
2013-05-28 17:18:00,79.0,71.5,30.12,SE,145,4.5,5.8,78,0.04,,---,0.04,VWS V14.01,2013-05-28 21:18:00,
2013-05-28 17:21:00,78.6,71.6,30.12,West,261,4.0,5.4,79,0.04,,---,0.04,VWS V14.01,2013-05-28 21:21:00,
2013-05-28 17:22:00,78.6,71.6,30.12,South,175,3.6,3.6,79,0.04,,---,0.04,VWS V14.01,2013-05-28 21:22:00,
2013-05-28 17:23:00,78.6,71.6,30.12,SSE,157,3.6,6.3,79,0.04,,---,0.04,VWS V14.01,2013-05-28 21:23:00,
2013-05-28 17:24:00,78.6,71.6,30.12,SSE,161,3.6,6.3,79,0.04,,---,0.04,VWS V14.01,2013-05-28 21:24:00,
2013-05-28 17:26:00,78.6,71.6,30.12,SSW,207,0.0,4.0,79,0.04,,---,0.04,VWS V14.01,2013-05-28 21:26:00,
2013-05-28 17:27:00,78.6,71.6,30.12,SSW,207,2.7,2.7,79,0.04,,---,0.04,VWS V14.01,2013-05-28 21:27:00,
2013-05-28 17:28:00,78.6,71.6,30.12,South,169,4.0,5.8,79,0.04,,---,0.04,VWS V14.01,2013-05-28 21:28:00,
2013-05-28 17:29:00,78.4,71.4,30.12,SSW,194,2.7,4.0,79,0.04,,---,0.04,VWS V14.01,2013-05-28 21:29:00,
2013-05-28 17:31:00,78.4,71.8,30.12,SSE,151,4.0,4.0,80,0.04,,---,0.04,VWS V14.01,2013-05-28 21:31:00,
2013-05-28 17:32:00,78.4,71.8,30.12,SSE,151,3.1,5.8,80,0.04,,---,0.04,VWS V14.01,2013-05-28 21:32:00,
2013-05-28 17:33:00,78.4,71.8,30.12,SSE,151,2.7,5.8,80,0.04,,---,0.04,VWS V14.01,2013-05-28 21:33:00,
2013-05-28 17:34:00,78.4,71.8,30.12,SSE,162,3.6,3.6,80,0.04,,---,0.04,VWS V14.01,2013-05-28 21:34:00,
2013-05-28 17:36:00,78.4,71.8,30.12,SSE,160,0.0,3.6,80,0.04,,---,0.04,VWS V14.01,2013-05-28 21:36:00,
2013-05-28 17:37:00,78.4,71.8,30.12,South,186,3.1,3.6,80,0.04,,---,0.04,VWS V14.01,2013-05-28 21:37:00,
2013-05-28 17:38:00,78.4,71.8,30.12,South,186,2.2,3.6,80,0.04,,---,0.04,VWS V14.01,2013-05-28 21:38:00,
2013-05-28 17:39:00,78.4,71.8,30.12,South,185,2.7,2.7,80,0.04,,---,0.04,VWS V14.01,2013-05-28 21:39:00,
2013-05-28 17:41:00,78.3,71.6,30.12,South,176,3.1,4.0,80,0.04,,---,0.04,VWS V14.01,2013-05-28 21:41:00,
2013-05-28 17:43:00,78.3,71.6,30.12,South,188,2.7,3.1,80,0.04,,---,0.04,VWS V14.01,2013-05-28 21:43:00,
2013-05-28 17:44:00,78.4,71.8,30.12,South,188,0.0,0.0,80,0.04,,---,0.04,VWS V14.01,2013-05-28 21:44:00,
2013-05-28 17:47:00,78.4,71.8,30.12,South,189,0.0,3.1,80,0.04,,---,0.04,VWS V14.01,2013-05-28 21:47:00,
2013-05-28 17:48:00,78.4,72.1,30.12,South,189,0.0,0.0,81,0.04,,---,0.04,VWS V14.01,2013-05-28 21:48:00,
2013-05-28 17:49:00,78.4,72.1,30.12,South,189,0.0,2.2,81,0.04,,---,0.04,VWS V14.01,2013-05-28 21:49:00,
2013-05-28 17:52:00,78.4,72.1,30.12,South,177,2.2,2.2,81,0.04,,---,0.04,VWS V14.01,2013-05-28 21:52:00,
2013-05-28 17:53:00,78.4,72.1,30.12,South,173,0.0,3.1,81,0.04,,---,0.04,VWS V14.01,2013-05-28 21:53:00,
2013-05-28 17:54:00,78.6,72.3,30.12,South,191,3.1,3.1,81,0.04,,---,0.04,VWS V14.01,2013-05-28 21:54:00,
2013-05-28 17:57:00,78.6,72.7,30.12,South,187,3.1,3.1,82,0.04,,---,0.04,VWS V14.01,2013-05-28 21:57:00,
2013-05-28 17:58:00,78.6,72.7,30.12,South,190,0.0,0.0,82,0.04,,---,0.04,VWS V14.01,2013-05-28 21:58:00,
2013-05-28 17:59:00,78.6,72.7,30.12,South,180,2.7,2.7,82,0.04,,---,0.04,VWS V14.01,2013-05-28 21:59:00,
2013-05-28 18:02:00,78.6,72.7,30.12,SSE,159,2.7,3.1,82,0.00,,---,0.04,VWS V14.01,2013-05-28 22:02:00,
2013-05-28 18:03:00,78.6,72.7,30.12,SSE,159,0.0,3.1,82,0.00,,---,0.04,VWS V14.01,2013-05-28 22:03:00,
2013-05-28 18:04:00,78.8,72.8,30.12,SSE,159,0.0,0.0,82,0.00,,---,0.04,VWS V14.01,2013-05-28 22:04:00,
2013-05-28 18:07:00,78.8,72.8,30.12,South,183,4.0,4.0,82,0.00,,---,0.04,VWS V14.01,2013-05-28 22:07:00,
2013-05-28 18:08:00,78.8,72.8,30.12,South,177,2.7,3.1,82,0.00,,---,0.04,VWS V14.01,2013-05-28 22:08:00,
2013-05-28 18:09:00,78.8,72.8,30.12,SSW,213,0.0,3.1,82,0.00,,---,0.04,VWS V14.01,2013-05-28 22:09:00,
2013-05-28 18:10:00,78.8,72.8,30.12,NNE,13,0.0,3.6,82,0.00,,---,0.04,VWS V14.01,2013-05-28 22:10:00,
2013-05-28 18:12:00,78.8,72.8,30.12,WNW,301,2.7,2.7,82,0.00,,---,0.04,VWS V14.01,2013-05-28 22:12:00,
2013-05-28 18:13:00,78.8,72.8,30.12,WNW,284,2.7,2.7,82,0.00,,---,0.04,VWS V14.01,2013-05-28 22:13:00,
2013-05-28 18:14:00,78.8,73.2,30.12,NNW,340,2.7,3.1,83,0.00,,---,0.04,VWS V14.01,2013-05-28 22:14:00,
2013-05-28 18:15:00,78.8,73.2,30.12,South,170,3.1,3.1,83,0.00,,---,0.04,VWS V14.01,2013-05-28 22:15:00,
2013-05-28 18:17:00,78.8,73.2,30.12,SSE,166,4.0,4.0,83,0.00,,---,0.04,VWS V14.01,2013-05-28 22:17:00,
2013-05-28 18:18:00,78.8,73.2,30.12,SSE,149,4.0,4.0,83,0.00,,---,0.04,VWS V14.01,2013-05-28 22:18:00,
2013-05-28 18:19:00,78.8,73.2,30.12,South,172,3.1,4.5,83,0.00,,---,0.04,VWS V14.01,2013-05-28 22:19:00,
2013-05-28 18:20:00,78.8,73.2,30.12,SW,217,5.4,5.8,83,0.00,,---,0.04,VWS V14.01,2013-05-28 22:20:00,
2013-05-28 18:22:00,78.8,73.2,30.12,South,176,2.7,2.7,83,0.00,,---,0.04,VWS V14.01,2013-05-28 22:22:00,
2013-05-28 18:23:00,78.8,73.2,30.12,SSE,161,2.7,4.9,83,0.00,,---,0.00,VWS V14.01,2013-05-28 22:23:00,
2013-05-28 18:24:00,78.8,73.2,30.12,SSW,197,2.7,3.1,83,0.00,,---,0.04,VWS V14.01,2013-05-28 22:24:00,
2013-05-28 18:25:00,78.8,73.2,30.12,SSW,199,3.1,3.1,83,0.00,,---,0.04,VWS V14.01,2013-05-28 22:25:00,
2013-05-28 18:27:00,78.8,73.2,30.12,SSE,166,3.1,3.1,83,0.00,,---,0.04,VWS V14.01,2013-05-28 22:27:00,
2013-05-28 18:28:00,78.8,73.2,30.12,South,178,0.0,0.0,83,0.00,,---,0.04,VWS V14.01,2013-05-28 22:28:00,
2013-05-28 18:30:00,78.8,73.2,30.12,South,169,3.1,4.0,83,0.00,,---,0.04,VWS V14.01,2013-05-28 22:30:00,
2013-05-28 18:33:00,78.8,73.2,30.12,South,172,3.6,5.4,83,0.00,,---,0.04,VWS V14.01,2013-05-28 22:33:00,
2013-05-28 18:35:00,78.8,73.2,30.12,SSE,167,3.1,3.1,83,0.00,,---,0.04,VWS V14.01,2013-05-28 22:35:00,
2013-05-28 18:38:00,78.6,73.0,30.12,SSE,165,3.1,3.1,83,0.00,,---,0.04,VWS V14.01,2013-05-28 22:38:00,
2013-05-28 18:39:00,78.8,72.8,30.12,SSW,203,2.2,3.1,82,0.00,,---,0.04,VWS V14.01,2013-05-28 22:39:00,
2013-05-28 18:40:00,78.8,72.8,30.12,SSE,163,3.1,3.1,82,0.00,,---,0.04,VWS V14.01,2013-05-28 22:40:00,
2013-05-28 18:43:00,78.8,72.8,30.12,SSE,160,0.0,3.1,82,0.00,,---,0.04,VWS V14.01,2013-05-28 22:43:00,
2013-05-28 18:44:00,78.8,72.8,30.12,SSE,160,0.0,0.0,82,0.00,,---,0.04,VWS V14.01,2013-05-28 22:44:00,
2013-05-28 18:45:00,78.8,72.8,30.12,SSE,155,0.0,2.2,82,0.00,,---,0.04,VWS V14.01,2013-05-28 22:45:00,
2013-05-28 18:46:00,78.8,72.8,30.12,SW,229,2.2,2.2,82,0.00,,---,0.04,VWS V14.01,2013-05-28 22:46:00,
2013-05-28 18:48:00,78.6,72.3,30.12,ENE,62,3.1,3.6,81,0.00,,---,0.04,VWS V14.01,2013-05-28 22:48:00,
2013-05-28 18:49:00,78.6,72.3,30.12,SSE,154,4.9,4.9,81,0.00,,---,0.04,VWS V14.01,2013-05-28 22:49:00,
2013-05-28 18:50:00,78.6,72.3,30.12,SSE,158,2.7,4.9,81,0.00,,---,0.04,VWS V14.01,2013-05-28 22:50:00,
2013-05-28 18:51:00,78.6,72.3,30.12,SSE,164,2.2,3.6,81,0.00,,---,0.04,VWS V14.01,2013-05-28 22:51:00,
2013-05-28 18:53:00,78.6,72.3,30.12,SSE,163,0.0,0.0,81,0.00,,---,0.04,VWS V14.01,2013-05-28 22:53:00,
2013-05-28 18:54:00,78.6,72.3,30.12,SSE,166,2.2,2.2,81,0.00,,---,0.04,VWS V14.01,2013-05-28 22:54:00,
2013-05-28 18:55:00,78.6,72.3,30.12,SSE,166,0.0,2.7,81,0.00,,---,0.04,VWS V14.01,2013-05-28 22:55:00,
2013-05-28 18:56:00,78.6,72.3,30.12,SSE,166,2.7,2.7,81,0.00,,---,0.04,VWS V14.01,2013-05-28 22:56:00,
2013-05-28 18:58:00,78.6,72.3,30.12,ESE,113,2.7,3.1,81,0.00,,---,0.04,VWS V14.01,2013-05-28 22:58:00,
2013-05-28 18:59:00,78.6,72.3,30.12,ESE,113,0.0,0.0,81,0.00,,---,0.04,VWS V14.01,2013-05-28 22:59:00,
2013-05-28 19:00:00,78.6,72.3,30.12,ESE,113,0.0,0.0,81,0.00,,---,0.04,VWS V14.01,2013-05-28 23:00:00,
2013-05-28 19:01:00,78.6,72.3,30.12,ESE,113,0.0,0.0,81,0.00,,---,0.04,VWS V14.01,2013-05-28 23:01:00,
2013-05-28 19:04:00,78.6,72.3,30.12,SSW,209,2.2,2.2,81,0.00,,---,0.04,VWS V14.01,2013-05-28 23:04:00,
2013-05-28 19:05:00,78.3,72.0,30.12,South,173,0.0,0.0,81,0.00,,---,0.04,VWS V14.01,2013-05-28 23:05:00,
2013-05-28 19:06:00,78.3,72.0,30.12,SSW,202,2.2,2.2,81,0.00,,---,0.04,VWS V14.01,2013-05-28 23:06:00,
2013-05-28 19:07:00,78.3,72.3,30.12,South,190,0.0,3.1,82,0.00,,---,0.04,VWS V14.01,2013-05-28 23:07:00,
2013-05-28 19:09:00,78.3,72.3,30.12,South,186,2.2,2.2,82,0.00,,---,0.04,VWS V14.01,2013-05-28 23:09:00,
2013-05-28 19:10:00,78.3,72.3,30.12,South,177,3.1,3.6,82,0.00,,---,0.04,VWS V14.01,2013-05-28 23:10:00,
2013-05-28 19:11:00,78.3,72.3,30.12,South,178,2.2,5.4,82,0.00,,---,0.04,VWS V14.01,2013-05-28 23:11:00,
2013-05-28 19:12:00,78.3,72.3,30.12,SW,219,0.0,2.2,82,0.00,,---,0.04,VWS V14.01,2013-05-28 23:12:00,
2013-05-28 19:14:00,78.3,72.3,30.12,North,0,3.1,3.1,82,0.00,,---,0.04,VWS V14.01,2013-05-28 23:14:00,
2013-05-28 19:15:00,78.3,72.3,30.12,North,0,0.0,0.0,82,0.00,,---,0.04,VWS V14.01,2013-05-28 23:15:00,
2013-05-28 19:16:00,78.3,72.3,30.12,North,0,0.0,0.0,82,0.00,,---,0.04,VWS V14.01,2013-05-28 23:16:00,
2013-05-28 19:17:00,78.3,72.3,30.12,North,0,0.0,0.0,82,0.00,,---,0.04,VWS V14.01,2013-05-28 23:17:00,
2013-05-28 19:19:00,78.3,72.3,30.12,SSW,210,4.0,4.0,82,0.00,,---,0.04,VWS V14.01,2013-05-28 23:19:00,
2013-05-28 19:20:00,78.3,72.3,30.12,SSW,203,2.7,2.7,82,0.00,,---,0.04,VWS V14.01,2013-05-28 23:20:00,
2013-05-28 19:21:00,78.3,72.3,30.12,South,181,3.1,3.1,82,0.00,,---,0.04,VWS V14.01,2013-05-28 23:21:00,
2013-05-28 19:22:00,78.3,72.3,30.12,SSW,197,4.0,4.9,82,0.00,,---,0.04,VWS V14.01,2013-05-28 23:22:00,
2013-05-28 19:24:00,78.3,72.3,30.12,SE,133,0.0,0.0,82,0.00,,---,0.04,VWS V14.01,2013-05-28 23:24:00,
2013-05-28 19:25:00,78.3,72.3,30.12,South,178,2.7,2.7,82,0.00,,---,0.04,VWS V14.01,2013-05-28 23:25:00,
2013-05-28 19:26:00,78.3,72.3,30.12,South,178,0.0,0.0,82,0.00,,---,0.04,VWS V14.01,2013-05-28 23:26:00,
2013-05-28 19:28:00,78.3,72.3,30.12,NE,42,2.7,4.0,82,0.00,,---,0.04,VWS V14.01,2013-05-28 23:28:00,
2013-05-28 19:29:00,78.3,72.3,30.12,South,182,0.0,3.6,82,0.00,,---,0.04,VWS V14.01,2013-05-28 23:29:00,
2013-05-28 19:30:00,78.3,72.3,30.12,South,182,0.0,2.7,82,0.00,,---,0.04,VWS V14.01,2013-05-28 23:30:00,
2013-05-28 19:31:00,78.1,72.5,30.12,South,182,0.0,0.0,83,0.00,,---,0.04,VWS V14.01,2013-05-28 23:31:00,
2013-05-28 19:33:00,78.1,72.5,30.12,South,176,2.7,2.7,83,0.00,,---,0.04,VWS V14.01,2013-05-28 23:33:00,
2013-05-28 19:34:00,78.1,72.5,30.12,South,176,3.1,3.1,83,0.00,,---,0.04,VWS V14.01,2013-05-28 23:34:00,
2013-05-28 19:35:00,78.1,72.5,30.12,NW,320,2.7,3.1,83,0.00,,---,0.04,VWS V14.01,2013-05-28 23:35:00,
2013-05-28 19:36:00,78.1,72.5,30.12,NW,320,2.7,3.1,83,0.00,,---,0.04,VWS V14.01,2013-05-28 23:36:00,
2013-05-28 19:38:00,78.1,72.5,30.12,SSE,156,2.7,3.1,83,0.00,,---,0.04,VWS V14.01,2013-05-28 23:38:00,
2013-05-28 19:39:00,78.1,72.5,30.12,SSW,193,2.7,2.7,83,0.00,,---,0.04,VWS V14.01,2013-05-28 23:39:00,
2013-05-28 19:41:00,77.9,72.3,30.12,SSW,206,2.2,2.2,83,0.00,,---,0.04,VWS V14.01,2013-05-28 23:41:00,
2013-05-28 19:43:00,77.9,72.3,30.12,SSE,165,0.0,3.6,83,0.00,,---,0.04,VWS V14.01,2013-05-28 23:43:00,
2013-05-28 19:44:00,77.9,72.3,30.12,North,357,2.7,3.1,83,0.00,,---,0.04,VWS V14.01,2013-05-28 23:44:00,
2013-05-28 19:46:00,77.9,72.3,30.12,South,181,0.0,3.1,83,0.00,,---,0.04,VWS V14.01,2013-05-28 23:46:00,
2013-05-28 19:48:00,77.9,72.7,30.12,NW,307,2.7,3.1,84,0.00,,---,0.04,VWS V14.01,2013-05-28 23:48:00,
2013-05-28 19:49:00,77.7,72.5,30.12,NW,308,2.7,2.7,84,0.00,,---,0.04,VWS V14.01,2013-05-28 23:49:00,
2013-05-28 19:51:00,77.7,72.5,30.12,South,178,2.2,2.7,84,0.00,,---,0.04,VWS V14.01,2013-05-28 23:51:00,
2013-05-28 19:53:00,77.7,72.5,30.12,SW,221,3.1,3.1,84,0.00,,---,0.04,VWS V14.01,2013-05-28 23:53:00,